Wind_Speed
6 6 6 5 5 5 4 3 4 4 5 6 7 9 9 11 11 12 13 12 11 11 11 12 12 11 11 11 11 10 10 9 8 8 8 9 9 9 9 9 9 10 10 11 11 11 11 11 12
6 6 7 6 5 4 4 4 4 5 7 8 8 9 10 11 12 13 13 13 12 12 11 12 12 11 11 11 11 10 9 9 9 10 10 10 10 10 10 10 10 11 11 11 11 11 12 12 13
6 6 7 6 5 4 5 5 5 6 8 9 10 10 11 11 12 12 12 13 13 13 12 12 12 11 11 11 11 10 10 10 10 10 11 11 11 11 11 11 11 12 12 12 11 12 13 13 13
7 7 7 6 5 4 5 6 7 7 8 10 11 11 12 12 12 13 13 13 14 14 13 12 12 11 11 10 11 11 11 11 11 11 11 11 11 11 12 12 13 13 13 13 12 12 13 13 13
7 7 6 6 4 4 4 6 8 9 9 10 10 11 12 13 13 14 14 14 15 14 13 13 13 13 12 11 11 12 12 12 12 12 12 12 12 13 13 14 14 14 14 14 14 14 14 14 14
8 7 6 5 5 5 6 7 8 9 10 10 10 11 12 13 14 14 15 16 16 15 15 14 14 13 12 13 13 12 12 13 13 13 13 14 14 14 14 15 15 15 15 15 15 16 16 15 15
8 7 6 5 5 6 8 9 10 9 10 11 11 11 12 13 14 15 15 16 17 16 15 15 15 14 14 14 14 14 14 14 14 14 14 15 15 15 15 16 15 16 16 16 16 16 16 16 16
8 7 6 5 6 7 9 10 11 11 12 12 12 13 13 14 15 15 15 15 16 16 15 15 15 15 15 15 15 14 14 15 15 15 15 16 16 16 17 17 17 17 18 17 17 17 16 16 16
8 8 6 6 7 8 9 11 11 12 13 12 14 14 15 15 16 16 16 15 16 15 14 15 16 15 16 16 16 15 15 15 15 16 17 17 17 17 18 19 18 18 18 18 18 18 17 17 18
8 8 7 7 8 9 9 10 12 12 13 14 14 15 16 16 16 16 15 15 16 15 15 15 14 15 15 15 15 15 15 16 16 17 18 18 18 19 19 19 19 19 19 20 19 18 19 18 19
7 6 6 7 8 8 9 11 12 14 14 14 15 15 15 16 16 15 15 15 15 15 16 17 15 15 15 15 15 15 16 16 18 19 18 19 19 20 20 20 20 20 20 21 21 20 20 20 20
7 7 6 7 8 10 11 12 13 13 15 15 15 15 15 15 16 16 15 15 14 14 15 16 16 16 15 15 15 15 16 17 19 19 20 19 20 20 21 20 21 21 21 21 21 20 21 21 21
7 8 7 8 10 11 12 13 13 14 14 15 16 17 16 17 17 16 16 17 16 15 15 16 17 17 17 16 16 16 16 17 19 19 20 21 21 21 22 22 21 22 23 23 23 23 22 21 21
8 8 9 9 11 12 13 13 13 14 14 15 15 16 17 16 17 16 16 17 16 16 16 17 17 17 17 17 17 17 18 18 19 20 21 22 22 22 22 23 23 23 24 24 24 24 23 22 22
7 8 9 10 11 12 13 13 13 14 15 15 15 17 17 15 16 16 15 16 16 16 16 18 18 17 16 17 17 18 19 19 20 21 22 22 23 24 24 23 23 24 24 25 25 25 26 24 23
7 8 8 9 10 11 12 12 13 14 15 15 15 16 16 17 17 16 17 17 17 17 17 19 20 18 17 18 18 19 20 21 21 22 22 22 23 23 24 23 24 24 24 24 25 26 26 25 23
8 9 9 9 10 12 12 13 14 14 16 15 15 17 17 18 18 18 19 18 18 19 18 20 20 19 19 18 19 20 21 21 21 22 22 21 22 23 23 23 24 25 26 26 26 26 25 25 24
8 9 10 10 12 13 13 14 15 15 16 17 18 18 19 19 18 18 18 18 19 19 19 20 19 19 19 19 19 20 21 21 21 21 22 22 22 22 23 23 24 25 25 26 26 26 25 25 25
9 11 11 11 12 14 14 15 15 16 17 18 19 19 19 19 18 18 19 20 20 19 19 19 19 19 19 18 18 20 20 20 21 22 22 21 21 22 22 22 23 23 23 25 26 27 26 26 26
11 12 13 12 13 14 15 16 16 17 18 19 20 20 19 19 19 19 20 21 21 20 19 19 19 19 18 17 18 20 20 19 20 20 20 20 21 22 22 22 23 23 24 23 24 25 26 26 26
11 13 14 14 14 15 16 16 17 18 17 19 20 19 19 19 20 20 20 21 20 20 20 20 19 18 18 19 20 20 18 18 18 19 19 20 21 21 21 22 22 23 23 23 24 25 26 26 26
12 13 14 15 15 15 16 17 17 17 17 18 19 19 20 20 21 20 21 20 20 20 20 20 19 18 18 19 20 19 18 18 18 19 19 20 20 20 20 20 21 22 22 22 23 24 25 26 26
13 14 14 15 15 16 16 17 16 16 17 18 19 19 21 22 21 21 20 20 19 19 20 19 19 19 19 19 19 19 18 17 18 18 19 20 19 19 18 19 20 20 21 22 22 24 24 24 25
13 14 14 14 15 15 15 17 16 16 17 18 20 20 20 21 21 21 21 19 19 19 20 20 19 18 18 19 19 19 17 17 17 18 18 18 19 19 19 19 20 20 21 21 22 22 22 22 23
13 14 15 15 15 15 16 16 16 17 18 19 20 20 20 21 21 21 20 19 19 19 20 19 17 17 17 17 17 17 17 17 16 17 17 17 17 18 20 20 21 21 21 21 21 21 21 22 22
13 13 14 15 16 16 15 15 16 17 18 20 20 20 19 20 20 20 20 19 18 19 18 18 17 16 16 16 16 16 16 16 16 16 16 17 17 18 20 21 21 22 22 21 21 20 20 20 21
13 13 14 15 15 16 16 16 16 17 18 19 19 18 18 19 19 19 19 19 19 18 18 18 17 16 16 16 16 16 16 15 16 16 17 18 18 19 20 20 21 22 21 21 21 21 20 21 20
12 13 14 15 16 16 16 16 17 17 16 17 18 17 17 18 18 19 18 18 19 18 17 17 17 17 16 16 16 15 15 15 16 16 18 19 19 20 20 20 21 21 21 21 21 21 21 21 21
11 12 13 14 15 17 17 16 16 17 17 17 17 16 17 18 18 18 18 18 18 17 16 16 17 16 16 15 14 15 15 15 16 17 18 19 20 20 19 19 19 20 20 20 20 21 21 22 22
12 13 14 15 15 16 16 15 15 16 16 17 16 16 17 17 18 18 18 18 17 16 15 15 16 15 15 15 15 15 15 16 17 18 19 20 20 19 19 19 18 18 19 19 19 20 20 21 22
Wind_Direction
233 227 220 221 221 229 248 279 296 309 318 327 331 331 334 331 330 325 322 318 316 313 312 311 308 303 300 298 295 292 289 290 293 295 294 290 292 291 289 289 288 288 286 285 283 281 280 280 280
231 229 225 224 227 238 253 270 285 303 312 317 324 327 326 326 326 321 316 311 309 309 307 306 308 306 302 301 295 288 287 287 290 290 289 288 289 289 285 285 284 286 286 282 279 278 276 276 278
229 229 228 230 228 235 250 272 286 299 308 312 315 317 317 320 320 318 312 308 306 307 306 303 305 307 306 303 296 291 285 286 288 288 285 286 286 285 284 281 281 283 283 280 277 276 274 275 278
229 232 232 226 229 238 255 275 285 291 306 308 308 311 312 313 313 313 308 303 304 304 301 299 300 303 302 298 293 293 288 282 284 285 283 284 282 284 285 282 278 281 281 277 276 276 276 276 277
233 229 229 231 239 245 267 281 286 291 303 305 308 311 313 311 309 306 305 299 300 298 295 294 295 296 297 292 289 291 285 281 283 283 280 279 279 280 281 281 277 277 277 275 273 274 277 278 276
226 226 228 242 251 260 276 289 295 298 305 312 317 320 315 310 309 304 300 299 299 296 291 291 292 290 290 291 288 289 285 282 282 283 278 277 277 276 276 280 278 273 271 268 269 276 274 274 276
238 243 239 245 259 275 290 296 299 302 310 314 318 322 320 315 310 304 301 300 299 295 289 288 288 290 291 291 291 287 283 280 278 280 276 274 275 275 274 273 276 273 270 269 270 272 271 272 272
237 248 238 243 263 280 296 300 302 303 309 313 318 323 322 316 311 305 302 302 300 295 289 288 287 287 287 286 285 285 282 277 276 280 279 274 274 273 272 269 271 272 270 267 268 268 269 270 271
234 236 245 256 273 289 300 306 307 308 310 316 318 318 318 316 313 307 304 303 300 297 291 288 285 285 283 283 284 282 281 279 277 277 279 275 275 276 273 270 271 272 271 267 265 266 266 267 269
232 232 246 264 281 291 300 308 310 309 314 317 317 316 315 313 311 307 303 301 298 294 290 289 287 287 286 285 284 280 279 279 278 278 279 276 275 276 274 270 268 269 267 266 263 267 267 266 267
238 242 255 270 284 294 302 307 310 313 314 316 315 315 317 315 311 306 304 301 294 289 288 287 288 289 287 284 283 280 278 279 281 279 280 279 277 274 273 271 268 266 265 262 262 265 264 266 268
242 247 258 275 287 294 299 308 313 316 314 316 317 318 318 314 307 301 299 299 294 290 288 290 291 288 288 287 282 279 277 277 281 279 276 278 278 276 273 272 268 264 264 265 264 266 268 268 269
244 249 261 280 288 299 304 308 318 320 315 311 312 314 315 312 306 302 297 296 292 288 289 289 289 286 284 282 279 278 277 279 280 281 276 276 276 276 274 271 268 264 264 265 264 266 269 269 267
257 257 267 281 292 298 306 311 315 318 314 309 309 309 309 309 309 305 300 298 296 293 290 288 288 285 282 280 280 279 281 281 283 282 280 278 277 277 277 272 267 267 266 265 264 265 264 269 269
267 270 281 288 295 300 303 306 311 317 319 315 314 314 313 311 312 311 306 301 296 296 292 287 285 283 279 280 280 283 284 283 286 286 282 279 278 278 276 275 270 268 266 264 264 265 262 264 266
269 274 283 286 296 302 306 312 318 321 323 320 318 320 321 319 317 315 316 311 306 303 296 291 289 286 283 282 281 284 287 285 286 284 283 281 279 279 278 277 275 269 267 264 264 263 262 262 265
265 280 288 293 301 304 307 313 319 323 324 326 324 322 324 323 321 318 318 317 314 309 301 295 292 289 288 286 286 287 288 287 285 284 284 282 281 280 279 278 275 271 270 267 266 263 262 262 264
271 290 298 300 300 303 309 313 318 321 322 323 323 322 324 322 320 318 316 314 313 310 305 297 294 292 291 290 288 290 290 286 284 284 284 282 281 279 278 278 278 275 271 269 265 261 264 265 266
276 290 296 298 302 306 311 312 315 316 319 320 321 320 321 320 316 312 312 313 312 309 307 302 298 294 295 294 291 290 290 288 286 284 284 284 282 279 279 279 279 277 273 270 266 262 264 265 265
275 287 292 296 301 306 310 311 315 315 317 319 321 321 321 319 317 311 307 308 307 307 306 305 301 297 295 294 294 295 291 288 288 287 285 285 284 282 280 280 280 278 274 270 268 265 264 264 263
275 286 293 300 304 307 310 311 313 315 318 321 322 320 322 321 318 313 311 310 309 310 307 305 300 295 295 295 293 291 294 294 292 288 287 287 286 284 282 280 280 279 278 273 270 269 266 265 264
276 285 293 299 304 306 309 311 315 317 320 323 323 320 320 321 321 317 316 316 313 311 310 310 305 302 301 297 292 293 292 294 295 291 289 288 287 286 285 282 281 280 279 276 273 271 268 266 265
278 287 293 298 300 301 306 310 318 322 323 324 324 321 321 323 324 323 319 319 317 314 314 313 311 306 303 301 298 295 294 294 292 290 290 289 289 287 286 286 283 283 282 279 276 273 269 266 265
284 287 292 294 295 297 303 307 314 319 322 323 325 325 325 327 326 325 324 322 319 317 317 315 315 312 307 302 301 299 298 297 293 290 290 291 289 286 286 287 288 287 285 280 276 272 268 266 267
288 288 289 291 292 295 302 306 313 318 320 321 325 327 327 327 326 327 324 323 321 321 321 321 320 317 313 308 306 304 303 300 298 294 294 294 293 291 290 290 290 289 287 283 279 273 270 268 266
290 289 291 292 294 297 302 307 313 318 320 322 323 325 326 325 326 327 327 326 327 327 324 326 324 321 321 318 312 308 306 303 301 302 301 300 299 296 292 291 291 289 287 283 279 275 273 271 270
295 292 294 295 296 297 302 307 308 313 319 322 326 326 326 326 326 327 329 329 330 332 331 331 329 325 323 321 318 314 310 308 306 307 308 306 303 300 294 293 292 290 288 283 279 275 275 273 271
296 298 298 298 298 300 304 307 311 314 319 325 328 329 329 330 330 329 330 330 331 334 336 334 333 332 328 323 320 319 317 314 310 308 307 308 307 304 299 295 291 289 288 282 279 276 275 274 273
296 297 300 300 299 302 305 308 314 317 320 324 327 330 331 332 331 331 331 331 332 335 338 336 336 335 332 330 328 325 320 318 315 311 310 309 309 308 304 299 294 291 287 284 281 277 276 274 274
296 300 305 306 305 304 307 311 314 318 321 323 326 329 329 330 331 332 333 335 336 339 339 338 340 340 337 334 332 329 326 323 321 317 315 314 313 310 307 304 300 296 290 285 283 283 280 278 278
Height
5868 5869 5870 5872 5873 5873 5873 5873 5872 5872 5872 5872 5871 5871 5871 5871 5871 5873 5870 5868 5868 5867 5866 5866 5865 5864 5863 5863 5862 5862 5862 5862 5862 5862 5862 5862 5862 5862 5862 5862 5862 5862 5862 5863 5863 5864 5864 5865 5865
5867 5869 5871 5871 5871 5872 5872 5872 5871 5871 5871 5870 5870 5870 5869 5869 5868 5868 5867 5866 5866 5865 5864 5864 5863 5862 5861 5861 5860 5860 5860 5859 5859 5859 5860 5860 5860 5860 5860 5860 5860 5860 5860 5860 5861 5861 5862 5862 5863
5867 5868 5870 5870 5870 5871 5871 5871 5870 5870 5870 5869 5869 5868 5868 5867 5867 5866 5865 5864 5864 5863 5862 5862 5861 5860 5859 5859 5858 5858 5858 5858 5857 5857 5858 5858 5858 5858 5858 5858 5857 5857 5858 5858 5858 5859 5859 5859 5860
5867 5868 5869 5870 5869 5870 5869 5869 5869 5869 5869 5868 5867 5867 5866 5865 5864 5864 5863 5862 5861 5860 5860 5859 5858 5857 5857 5856 5856 5856 5855 5855 5855 5855 5855 5855 5855 5855 5855 5855 5855 5855 5855 5855 5855 5855 5856 5856 5857
5866 5867 5868 5868 5869 5869 5868 5868 5868 5868 5867 5866 5865 5864 5863 5863 5862 5861 5860 5859 5858 5857 5856 5856 5855 5855 5854 5854 5853 5853 5853 5852 5852 5853 5853 5853 5853 5853 5852 5852 5852 5852 5852 5852 5853 5852 5853 5853 5854
5866 5866 5867 5867 5867 5867 5867 5867 5866 5866 5865 5864 5863 5862 5861 5860 5859 5858 5857 5856 5855 5854 5853 5853 5852 5851 5851 5851 5850 5850 5850 5850 5850 5850 5850 5850 5850 5850 5850 5849 5849 5849 5849 5849 5850 5849 5849 5850 5851
5865 5865 5865 5866 5866 5866 5866 5865 5864 5863 5862 5862 5861 5860 5859 5857 5856 5855 5854 5853 5852 5850 5849 5849 5848 5848 5848 5847 5847 5847 5847 5847 5847 5847 5847 5847 5846 5846 5846 5846 5846 5846 5846 5846 5846 5847 5847 5847 5847
5863 5865 5864 5864 5865 5865 5865 5863 5862 5861 5860 5859 5858 5857 5856 5854 5853 5851 5850 5849 5848 5846 5845 5845 5844 5844 5844 5844 5844 5843 5843 5843 5843 5843 5843 5843 5843 5843 5843 5843 5843 5843 5842 5843 5843 5843 5843 5843 5844
5862 5864 5863 5863 5863 5863 5863 5861 5860 5859 5858 5857 5855 5854 5853 5851 5849 5848 5846 5845 5843 5842 5842 5841 5840 5840 5840 5840 5840 5840 5840 5840 5840 5840 5840 5839 5839 5839 5839 5839 5839 5839 5838 5838 5839 5839 5839 5840 5840
5861 5861 5862 5862 5862 5861 5860 5859 5858 5857 5855 5854 5853 5851 5849 5847 5846 5844 5842 5841 5840 5839 5838 5837 5837 5837 5837 5837 5836 5836 5836 5836 5836 5836 5835 5835 5835 5835 5834 5834 5834 5834 5834 5834 5835 5835 5835 5836 5836
5859 5860 5860 5860 5860 5859 5858 5857 5856 5854 5853 5852 5850 5848 5846 5844 5842 5840 5839 5838 5837 5836 5835 5835 5835 5834 5833 5833 5833 5833 5833 5833 5833 5832 5831 5831 5830 5830 5830 5829 5830 5830 5830 5830 5830 5831 5831 5832 5832
5859 5859 5859 5859 5858 5858 5857 5855 5853 5852 5851 5849 5847 5845 5843 5841 5839 5837 5836 5834 5834 5833 5832 5832 5831 5830 5830 5829 5829 5829 5829 5829 5829 5828 5827 5826 5826 5825 5826 5825 5825 5825 5826 5826 5826 5827 5827 5827 5828
5857 5858 5858 5857 5857 5856 5855 5853 5852 5850 5848 5847 5845 5842 5840 5837 5835 5833 5832 5831 5830 5829 5829 5828 5827 5827 5826 5825 5825 5826 5825 5825 5824 5823 5823 5822 5822 5821 5821 5821 5820 5820 5820 5821 5822 5822 5823 5823 5823
5856 5856 5856 5856 5856 5855 5853 5852 5850 5848 5846 5844 5842 5840 5837 5835 5832 5830 5828 5827 5826 5826 5825 5824 5823 5823 5822 5822 5821 5821 5821 5820 5820 5819 5818 5817 5817 5816 5816 5816 5815 5815 5815 5816 5816 5817 5817 5818 5818
5855 5856 5855 5855 5854 5853 5852 5850 5848 5846 5844 5841 5839 5837 5835 5832 5830 5828 5826 5824 5823 5822 5820 5819 5818 5818 5818 5817 5817 5816 5816 5815 5815 5814 5813 5812 5812 5811 5810 5810 5810 5810 5810 5810 5810 5811 5811 5812 5813
5855 5855 5854 5854 5852 5851 5851 5848 5847 5844 5842 5839 5837 5834 5832 5829 5827 5824 5823 5821 5819 5818 5817 5815 5814 5812 5813 5812 5812 5812 5811 5810 5809 5808 5807 5806 5806 5805 5804 5804 5804 5804 5804 5804 5805 5805 5806 5806 5807
5854 5853 5853 5852 5851 5849 5848 5846 5845 5842 5840 5837 5834 5832 5829 5827 5824 5822 5820 5818 5816 5814 5813 5812 5810 5809 5808 5807 5807 5806 5805 5804 5803 5802 5801 5800 5799 5799 5798 5798 5798 5797 5798 5798 5799 5799 5800 5801 5801
5852 5852 5851 5850 5849 5847 5846 5844 5842 5840 5838 5835 5833 5830 5828 5825 5822 5820 5817 5815 5813 5811 5809 5807 5806 5804 5803 5802 5801 5800 5799 5798 5797 5796 5795 5795 5794 5793 5793 5793 5792 5791 5791 5792 5792 5793 5793 5794 5795
5850 5850 5849 5848 5847 5845 5843 5842 5840 5838 5835 5834 5831 5828 5825 5822 5820 5817 5814 5812 5809 5807 5805 5803 5801 5800 5798 5797 5796 5795 5794 5792 5791 5790 5790 5789 5788 5788 5787 5786 5786 5785 5785 5785 5786 5786 5787 5787 5788
5848 5847 5847 5846 5844 5843 5841 5839 5837 5835 5833 5831 5829 5825 5823 5820 5817 5814 5811 5808 5806 5803 5801 5799 5797 5795 5793 5791 5790 5789 5788 5786 5785 5785 5784 5783 5782 5781 5781 5780 5780 5779 5779 5778 5779 5779 5780 5780 5781
5846 5845 5845 5844 5842 5840 5838 5837 5835 5833 5830 5828 5826 5823 5820 5817 5814 5811 5807 5804 5801 5799 5796 5794 5792 5790 5788 5786 5785 5783 5782 5781 5780 5779 5778 5778 5776 5774 5774 5773 5773 5773 5772 5772 5772 5772 5773 5774 5774
5844 5843 5842 5841 5839 5838 5836 5834 5833 5830 5828 5826 5823 5820 5817 5814 5811 5807 5804 5800 5797 5794 5792 5789 5787 5785 5783 5781 5779 5778 5777 5776 5775 5774 5773 5772 5770 5769 5768 5767 5767 5766 5766 5765 5766 5766 5766 5766 5767
5842 5841 5840 5838 5837 5835 5834 5832 5831 5828 5826 5823 5820 5817 5814 5811 5807 5804 5800 5797 5793 5790 5787 5784 5781 5780 5778 5776 5774 5773 5772 5771 5769 5768 5767 5766 5764 5763 5762 5762 5761 5760 5759 5759 5759 5759 5759 5760 5760
5839 5839 5837 5836 5835 5833 5832 5830 5828 5826 5823 5821 5818 5814 5811 5807 5804 5800 5797 5793 5790 5787 5784 5780 5778 5775 5773 5771 5770 5769 5767 5765 5764 5763 5762 5761 5759 5758 5757 5756 5755 5755 5754 5753 5753 5752 5752 5753 5754
5837 5837 5835 5833 5832 5831 5830 5827 5827 5824 5821 5818 5815 5812 5808 5805 5801 5797 5793 5790 5787 5783 5780 5777 5774 5771 5768 5766 5765 5764 5762 5761 5760 5758 5757 5756 5755 5753 5752 5751 5750 5749 5748 5747 5746 5746 5746 5746 5747
5835 5834 5833 5832 5830 5829 5827 5825 5825 5821 5818 5815 5812 5809 5806 5802 5798 5794 5791 5788 5784 5780 5777 5774 5771 5768 5766 5763 5762 5760 5758 5757 5756 5754 5753 5752 5750 5749 5747 5746 5744 5743 5742 5741 5740 5740 5740 5740 5740
5832 5831 5830 5829 5827 5825 5824 5823 5821 5819 5816 5813 5810 5806 5803 5800 5796 5793 5789 5785 5781 5778 5775 5771 5768 5766 5763 5761 5759 5757 5755 5754 5752 5751 5749 5747 5746 5744 5742 5740 5738 5737 5736 5735 5734 5734 5734 5734 5734
5830 5829 5827 5826 5824 5822 5822 5820 5819 5816 5813 5810 5807 5804 5801 5797 5794 5791 5787 5784 5780 5776 5773 5769 5766 5763 5760 5758 5756 5754 5753 5751 5749 5747 5745 5743 5741 5739 5736 5735 5733 5731 5730 5729 5728 5728 5728 5728 5728
5828 5827 5825 5823 5822 5820 5818 5820 5816 5813 5811 5808 5805 5802 5798 5795 5792 5789 5785 5782 5778 5774 5771 5768 5765 5762 5759 5757 5754 5752 5750 5748 5745 5743 5741 5739 5736 5734 5731 5729 5728 5726 5724 5723 5722 5722 5722 5721 5721
5825 5824 5823 5822 5820 5817 5816 5818 5813 5810 5808 5805 5802 5799 5796 5793 5790 5787 5783 5780 5776 5773 5770 5767 5764 5761 5758 5755 5752 5750 5747 5745 5743 5740 5737 5734 5732 5729 5726 5724 5722 5721 5719 5718 5717 5716 5715 5715 5714